Flag for Malaysia Weather past 2 weeks in Kuala Lumpur, Malaysia

Now
88 °F

Thunderstorms. Broken clouds.


Feels Like: 100 °F
Forecast: 78 / 90 °F
Wind: 12 mph from South

Location: Sultan Abdul Aziz Shah-Subang

Current Time: Jul 29, 2015 at 7:38:02 PM

Latest Report: Jul 29, 2015 at 7:00 PM


Visibility: N/A

Pressure: 29.77 "Hg

Humidity: 70%

Dew point: 77 °F

Location of Kuala LumpurLocation

Historic Weather in Kuala Lumpur — Graph

°F

Kuala Lumpur temperature yesterday

Maximum temperature yesterday: 95 °F (at 3:00 PM)
Minimum temperature yesterday: 75 °F (at 6:00 AM)
Average temperature yesterday: 85 °F

Past Weeks' High & Low Weather Summary

 TemperatureHumidityPressure
High95 °F (Jul 17, 3:00 PM)100% (Jul 15, 4:00 AM)29.95 "Hg (Jul 15, 4:00 AM)
Low75 °F (Jul 17, 7:00 AM)52% (Jul 28, 12:00 PM)29.68 "Hg (Jul 14, 6:00 PM)
Average84 °F79%29.83 "Hg
* Reported Jul 14 6:00 PM — Jul 29 6:00 PM, Kuala Lumpur, Weather by CustomWeather, © 2015

Note: Actual official high and low records may vary slightly from our data, if they occured in-between our weather recording intervals... More about our weather records

Advertising

Kuala Lumpur weather history for previous 24 hours

 ConditionsComfort  
Time TempWeatherWind HumidityBarometerVisibility
6:00 PM
Wed, Jul 29
90 °FBroken clouds.10 mph71%29.77 "HgN/A
5:00 PM93 °FPartly sunny.10 mph63%29.74 "HgN/A
4:00 PM93 °FBroken clouds.8 mph53%29.77 "HgN/A
3:00 PM93 °FBroken clouds.3 mph56%29.80 "HgN/A
2:00 PM93 °FPartly sunny.6 mph56%29.83 "HgN/A
1:00 PM91 °FBroken clouds.8 mph59%29.86 "HgN/A
12:00 PM90 °FBroken clouds.7 mph67%29.89 "HgN/A
11:00 AM90 °FPartly sunny.5 mph67%29.89 "HgN/A
10:00 AM86 °FPartly sunny.6 mph70%29.92 "HgN/A
9:00 AM84 °FPartly sunny.5 mph74%29.89 "HgN/A
8:00 AM79 °FPassing clouds.3 mph89%29.86 "HgN/A
7:00 AM79 °FPassing clouds.2 mph84%29.86 "Hg6 mi
6:00 AM79 °FPartly cloudy.2 mph84%29.86 "Hg5 mi
5:00 AM79 °FPartly cloudy.2 mph89%29.83 "Hg5 mi
4:00 AM81 °FPassing clouds.5 mph79%29.83 "Hg6 mi
3:00 AM81 °FPassing clouds.5 mph84%29.86 "Hg6 mi
2:00 AM81 °FPassing clouds.1 mph84%29.86 "Hg6 mi
1:00 AM82 °FPassing clouds.1 mph84%29.89 "Hg6 mi
12:00 AM84 °FPartly cloudy.6 mph74%29.89 "Hg6 mi
11:00 PM
Tue, Jul 28
84 °FPassing clouds.5 mph74%29.89 "Hg6 mi
10:00 PM86 °FPassing clouds.8 mph70%29.86 "Hg5 mi
9:00 PM86 °FPassing clouds.9 mph70%29.86 "Hg6 mi
8:00 PM88 °FBroken clouds.10 mph66%29.83 "HgN/A
7:00 PM90 °FBroken clouds.12 mph67%29.80 "HgN/A
Weather by CustomWeather, © 2015

See weather overviewHow to use our weather pages